Simultaneous Nadir Overpasses (SNOs) Predictions

Prediction of SNOs between GOES-15 and METOP-C Satellite Orbit:

Table of predicted SNOs for the next 14.0 days since TLE Epoch: 3/28/2025
Index Date Time (GOES-15) GOES-15 Lat,Lon METOP-C Lat,Lon Distance(km) Time Diff (sec)
1 03/30/2025 05:37:18 -0.09, 61.30 0.60, 58.13 361.29 80
2 03/31/2025 05:19:18 -0.09, 61.31 -0.48, 63.13 207.82 80
3 04/01/2025 17:38:18 0.10, 61.26 -0.49, 58.52 311.47 80
4 04/02/2025 17:14:58 0.10, 61.27 0.61, 63.53 256.86 80
5 04/04/2025 05:33:48 -0.11, 61.34 0.43, 58.97 270.21 80
6 04/05/2025 05:15:48 -0.11, 61.35 -0.73, 63.96 298.27 80
7 04/06/2025 17:34:47 0.12, 61.31 -0.33, 59.37 221.08 80
8 04/07/2025 17:11:26 0.12, 61.32 0.78, 64.37 347.30 80
9 04/09/2025 05:30:16 -0.13, 61.38 0.24, 59.81 179.78 80
10 04/10/2025 05:12:16 -0.12, 61.39 -0.87, 64.81 388.94 80
11 04/11/2025 17:31:14 0.13, 61.35 -0.15, 60.22 129.84 80
